Lamoni, IA

7:43 AM CDT on October 22, 2017 (GMT -0500)
Lamoni Municipal

Weather History for KLWD - October, 2010

Change the Weather History Date:

Wednesday, October 13, 2010

  Actual Average Record
Temperature  
Mean Temperature 56 °F 54 °F  
Max Temperature 67 °F 65 °F 86 °F (1989)
Min Temperature 45 °F 44 °F 28 °F (2006)
Degree Days  
Heating Degree Days 9 11  
Month to date heating degree days 80 122  
Since 1 July heating degree days 138 222  
Cooling Degree Days 0 0  
Month to date cooling degree days 8 11  
Year to date cooling degree days 1182 944  
Growing Degree Days 6 (Base 50)    
Moisture  
Dew Point 35 °F    
Average Humidity 48    
Maximum Humidity 66    
Minimum Humidity 29    
Precipitation  
Precipitation 0.00 in 0.10 in 1.71 in (2014)
Month to date precipitation T 1.01  
Year to date precipitation 48.06  
Sea Level Pressure  
Sea Level Pressure 30.24 in    
Wind  
Wind Speed 10 mph (NNW)    
Max Wind Speed 22 mph    
Max Gust Speed 29 mph    
Visibility 10 miles    
Events      
T = Trace of Precipitation, MM = Missing Value Source: NWS Daily Summary

Daily Weather History Graph

Daily Weather History Graph

Search for Another Location

Airport or City:

Trip Planner

Search our weather history database for the weather conditions in past years. The results will help you decide how hot, cold, wet, or windy it might be!

Date:

Astronomy

Oct. 13, 2010 Rise Set
Actual Time 7:24 AM CDT 6:38 PM CDT
Civil Twilight 6:57 AM CDT 7:05 PM CDT
Nautical Twilight 6:25 AM CDT 7:37 PM CDT
Astronomical Twilight 5:53 AM CDT 8:09 PM CDT
Moon 1:46 PM CDT (10/13) 11:16 PM CDT (10/13)
Length of Visible Light 12h 08m
Length of Day
11h 13m
Waxing Crescent, 38% of the Moon is Illuminated
Oct 13
Waxing Crescent
Oct 14
First Quarter
Oct 22
Full
Oct 30
Last Quarter
Nov 5
New

Hourly Weather History & Observations

Time (CDT) Temp. Windchill Dew Point Humidity Pressure Visibility Wind Dir Wind Speed Gust Speed Precip Events Conditions
12:53 AM 61.0 °F - 42.1 °F 50% 30.15 in 10.0 mi North 13.8 mph 23.0 mph N/A   Mostly Cloudy
1:53 AM 55.0 °F - 39.0 °F 55% 30.16 in 10.0 mi North 13.8 mph - N/A   Scattered Clouds
2:53 AM 53.1 °F - 37.9 °F 57% 30.17 in 10.0 mi North 12.7 mph - N/A   Clear
3:53 AM 51.1 °F - 37.9 °F 61% 30.18 in 10.0 mi North 10.4 mph - N/A   Clear
4:53 AM 50.0 °F - 37.9 °F 63% 30.19 in 10.0 mi NNW 10.4 mph - N/A   Clear
5:53 AM 48.9 °F - 37.0 °F 64% 30.22 in 10.0 mi NNW 10.4 mph - N/A   Clear
6:53 AM 48.0 °F - 36.0 °F 63% 30.24 in 10.0 mi North 9.2 mph - N/A   Clear
7:53 AM 46.0 °F 41.9 °F 36.0 °F 68% 30.26 in 10.0 mi NNW 8.1 mph - N/A   Clear
8:53 AM 50.0 °F - 37.0 °F 61% 30.28 in 10.0 mi NNW 8.1 mph - N/A   Clear
9:53 AM 55.9 °F - 37.9 °F 51% 30.28 in 10.0 mi NNW 9.2 mph - N/A   Clear
10:53 AM 60.1 °F - 36.0 °F 41% 30.29 in 10.0 mi North 13.8 mph 20.7 mph N/A   Clear
11:53 AM 63.0 °F - 34.0 °F 34% 30.29 in 10.0 mi NNW 18.4 mph 24.2 mph N/A   Clear
12:53 PM 64.0 °F - 33.1 °F 31% 30.28 in 10.0 mi NNW 17.3 mph 24.2 mph N/A   Clear
1:53 PM 66.0 °F - 34.0 °F 30% 30.27 in 10.0 mi NNW 13.8 mph 20.7 mph N/A   Clear
2:53 PM 66.9 °F - 34.0 °F 30% 30.25 in 10.0 mi NNW 12.7 mph 21.9 mph N/A   Clear
3:53 PM 66.9 °F - 33.1 °F 28% 30.25 in 10.0 mi NNW 12.7 mph 19.6 mph N/A   Clear
4:53 PM 66.0 °F - 33.1 °F 29% 30.24 in 10.0 mi NNW 12.7 mph - N/A   Clear
5:53 PM 64.0 °F - 33.1 °F 31% 30.24 in 10.0 mi NW 6.9 mph - N/A   Clear
6:53 PM 57.9 °F - 33.1 °F 39% 30.25 in 10.0 mi NW 6.9 mph - N/A   Clear
7:53 PM 53.1 °F - 34.0 °F 48% 30.26 in 10.0 mi WNW 6.9 mph - N/A   Clear
8:53 PM 51.1 °F - 33.1 °F 50% 30.27 in 10.0 mi WNW 6.9 mph - N/A   Clear
9:53 PM 48.9 °F - 34.0 °F 56% 30.27 in 10.0 mi WNW 6.9 mph - N/A   Clear
10:53 PM 46.9 °F - 33.1 °F 59% 30.28 in 10.0 mi WNW 6.9 mph - N/A   Clear
11:53 PM 48.0 °F - 32.0 °F 54% 30.27 in 10.0 mi NW 5.8 mph - N/A   Clear